Theta_e
288 287 288 288 289 289 289 289 289 290 290 290 290 291 291 292 292 292 295 297 298 298 300 302 303 304 305 304 302 304 304 304 304 305 305 305 305 305 304 305 305 305 307 309 310 312 315 319 321 320 319 319 318 318 319 318 318 317 316 314 314 312 312 310 309 308 308 311 311 311 313 313 313 313 314 314 314 315 315 315 315 315 315 315 316
287 286 286 287 287 288 288 288 289 287 288 289 289 289 290 291 291 292 293 295 296 298 298 300 302 303 303 303 302 301 301 301 301 303 304 303 303 303 303 303 302 302 304 306 307 308 309 311 312 315 318 320 319 319 319 317 318 317 316 315 314 315 314 311 310 311 307 308 310 312 313 314 314 314 313 314 314 314 314 314 315 315 315 315 315
285 285 285 285 286 287 287 287 287 287 287 288 289 289 289 289 290 291 292 293 294 296 297 298 300 302 302 302 302 300 302 302 301 302 303 301 301 301 302 301 300 300 301 303 304 305 306 307 308 310 310 312 315 318 319 319 319 318 317 317 316 313 314 311 310 314 311 304 307 309 310 309 309 309 307 307 309 311 312 312 312 312 313 314 315
283 284 284 284 285 285 285 286 286 287 287 287 288 288 289 289 289 290 291 292 293 294 296 297 299 301 301 301 300 298 298 300 300 300 300 299 298 299 300 299 299 299 300 300 302 302 303 304 305 306 307 308 309 308 308 308 310 314 317 317 317 316 314 312 314 313 315 313 310 310 309 308 306 308 300 308 309 312 310 309 310 310 311 312 312
283 283 283 283 283 283 284 285 286 285 286 286 287 288 289 288 289 289 290 290 292 294 294 295 296 297 298 298 298 297 297 297 296 296 297 297 297 297 297 298 298 298 298 299 300 300 301 301 303 303 304 304 305 305 304 306 307 308 308 310 314 316 315 315 313 313 314 317 316 309 308 306 307 309 307 312 308 308 307 308 309 310 310 310 310
283 283 283 283 283 283 283 284 284 284 285 286 287 287 287 288 288 288 289 289 290 291 293 294 293 293 293 292 291 291 291 292 292 293 294 294 294 296 296 296 296 296 297 297 298 299 299 300 301 301 301 302 302 302 303 303 304 304 306 308 308 309 312 315 316 314 315 316 317 318 316 311 310 306 309 308 310 313 315 313 313 310 310 309 309
284 283 283 283 283 283 283 283 283 283 284 285 286 287 287 287 287 287 288 289 290 290 291 293 291 292 293 292 291 291 290 292 294 295 294 294 294 294 294 295 294 294 294 295 296 298 298 298 299 300 300 300 301 300 300 301 302 303 304 305 305 307 308 306 309 316 316 316 317 317 316 317 316 313 310 312 309 313 312 310 310 307 308 309 310
283 283 283 283 282 282 282 283 283 283 284 284 284 286 286 287 287 287 288 289 288 289 289 291 290 290 290 291 292 291 291 291 293 293 294 293 293 292 293 293 293 293 293 293 294 295 296 296 297 297 297 298 298 298 299 300 301 301 302 302 304 305 305 304 305 308 308 314 316 315 316 316 317 317 316 312 311 308 311 314 315 314 311 311 312
283 283 282 283 283 283 283 282 283 283 283 283 283 284 285 286 287 287 287 287 287 288 289 288 290 289 288 288 288 290 290 290 291 291 291 291 291 291 291 291 291 291 292 292 293 293 294 295 295 295 295 296 297 296 297 298 299 299 299 299 300 302 304 305 305 303 304 304 303 310 316 316 316 317 316 315 311 309 310 312 313 311 308 311 311
284 283 283 282 283 283 283 282 282 282 283 284 283 283 284 285 285 285 285 286 287 287 288 288 288 289 287 287 287 287 288 288 288 288 289 289 288 289 289 289 289 289 290 290 291 292 293 294 294 293 293 294 295 294 295 295 297 298 298 299 300 301 302 302 300 299 300 300 301 301 302 308 313 315 315 314 314 313 309 311 313 312 311 314 314
282 282 282 281 281 282 282 281 281 282 282 282 282 282 283 283 283 284 285 286 286 286 287 287 287 287 286 287 286 286 287 287 287 286 287 287 286 287 287 288 288 288 288 289 289 290 291 293 292 294 294 294 293 293 293 294 296 296 297 298 299 299 297 297 297 297 297 298 299 300 301 301 300 302 307 313 314 312 311 311 313 314 313 312 316
282 281 281 281 281 281 281 281 281 281 282 282 282 282 282 282 282 282 283 284 285 285 285 286 286 287 287 287 286 286 286 286 286 285 286 286 286 286 287 287 287 287 287 287 288 288 289 289 289 289 291 290 291 292 292 293 295 295 296 296 296 296 296 295 295 295 295 296 296 298 298 299 300 300 301 302 305 310 314 313 313 315 315 315 317
281 281 281 280 280 280 280 280 280 280 280 281 281 281 281 281 281 281 282 282 283 283 283 284 285 285 286 286 286 287 286 286 286 285 286 286 286 286 286 286 286 286 286 286 287 287 288 288 288 287 287 288 289 290 291 292 293 293 294 295 294 293 293 294 293 293 295 294 294 296 296 297 297 300 301 300 301 300 302 306 313 316 313 314 317
280 280 279 279 279 279 279 279 280 280 280 280 280 281 280 281 281 281 281 282 283 283 283 283 283 284 285 285 285 286 285 285 285 285 286 286 287 286 286 286 285 285 286 286 287 287 287 287 288 287 287 287 288 288 289 290 291 291 292 293 293 292 292 293 293 293 294 294 295 294 294 294 295 296 297 298 298 297 297 297 298 303 311 314 317
279 279 279 279 279 279 279 279 279 279 280 280 279 280 280 280 280 280 280 281 282 282 282 282 282 283 283 283 284 285 284 284 285 286 285 285 286 286 286 286 286 286 286 286 287 287 287 287 287 287 287 287 287 287 288 287 288 288 289 291 290 290 290 290 291 291 291 292 292 293 293 294 294 294 296 295 297 297 297 297 298 295 298 304 312
280 279 279 279 279 278 279 279 279 279 279 279 280 280 280 280 279 279 279 280 281 283 281 282 282 282 282 282 283 285 286 284 284 284 284 284 284 285 285 285 286 286 286 286 287 287 286 286 286 286 287 286 286 286 286 286 287 286 287 287 286 288 287 287 288 289 290 291 291 293 292 293 294 294 294 294 295 296 297 297 298 297 294 293 299
279 280 279 279 278 278 278 278 278 279 279 279 280 279 279 280 279 279 279 279 280 281 281 281 281 281 281 281 282 282 282 282 282 282 283 284 284 284 284 285 285 286 286 287 286 286 286 286 286 286 286 286 286 286 286 286 286 286 286 286 285 286 286 286 286 286 286 287 288 290 290 291 292 293 294 294 294 294 294 295 297 297 297 294 293
280 280 279 279 278 279 278 278 278 278 278 278 279 279 279 279 279 279 279 279 279 280 281 281 280 281 281 280 281 281 282 282 282 282 282 282 282 283 284 284 284 285 286 286 285 285 285 286 285 285 285 285 285 285 285 285 285 285 285 285 286 286 285 285 286 286 286 286 286 286 286 286 288 289 290 292 293 294 294 294 295 297 298 294 292
280 280 280 280 279 279 278 278 278 278 280 279 279 279 278 278 279 278 279 279 279 280 281 281 281 281 282 281 280 280 281 281 282 282 282 281 281 282 282 283 283 285 285 284 284 284 284 284 284 284 284 284 284 284 285 285 285 284 285 285 285 285 284 284 285 285 286 285 285 285 285 285 286 286 287 288 290 291 293 294 295 296 295 294 292
281 281 281 280 279 279 278 278 278 278 278 278 278 278 277 278 278 279 279 278 278 278 280 279 280 280 280 280 280 280 281 281 281 281 281 281 281 282 281 281 282 284 283 284 283 283 283 283 283 284 284 284 284 284 284 284 284 284 284 284 284 284 284 283 284 285 285 285 284 284 284 284 285 286 286 286 286 287 289 292 293 293 293 293 293
281 282 281 280 280 279 278 278 278 277 277 279 278 277 278 277 277 277 278 278 277 278 278 279 279 279 279 278 279 279 280 280 280 280 281 280 281 282 281 282 282 281 282 282 282 282 282 283 282 283 283 283 283 283 284 283 283 283 283 284 284 283 283 283 284 283 284 284 284 283 284 284 285 285 285 285 285 286 286 287 289 289 288 290 291
281 282 281 281 280 279 278 278 278 277 278 277 278 277 277 277 278 277 277 277 277 278 278 278 278 279 278 278 278 278 278 279 279 279 280 280 280 280 280 281 280 280 281 281 281 281 282 282 281 282 282 282 282 282 283 283 282 282 282 284 284 283 282 282 283 282 283 284 283 283 283 283 284 284 284 284 285 285 285 285 285 286 285 287 291
281 281 281 281 280 279 279 279 278 278 278 277 277 277 278 277 277 277 277 278 277 278 278 278 278 278 278 278 278 278 278 278 278 278 279 279 279 279 280 280 280 280 280 281 281 281 281 281 280 281 281 281 281 281 282 282 282 282 282 282 283 282 282 282 282 282 282 283 282 282 282 283 284 283 283 283 284 284 285 285 284 285 285 286 288
279 279 279 280 279 278 277 278 278 278 277 277 278 278 277 277 278 277 277 278 277 278 278 278 277 277 277 276 277 277 277 277 277 278 278 278 278 279 280 279 279 280 280 280 280 280 280 280 280 280 280 280 280 281 281 281 281 281 281 281 281 281 282 282 282 282 282 282 282 281 282 282 283 282 282 283 283 284 284 284 284 284 285 285 287
278 278 278 278 278 278 278 278 278 278 278 278 278 278 278 278 277 277 278 277 277 277 277 277 277 277 276 276 276 276 276 276 277 277 277 277 277 278 278 279 279 279 279 279 280 280 279 279 280 279 279 279 280 280 280 280 281 281 281 281 281 281 281 281 282 282 283 282 281 281 282 282 282 282 282 282 283 283 283 284 283 284 284 285 286
278 278 278 278 279 279 279 278 278 278 278 278 278 278 278 278 278 278 278 278 278 277 277 277 277 277 277 276 276 276 276 276 276 276 277 277 277 277 277 278 278 278 278 279 279 279 280 279 278 279 279 279 279 279 279 279 280 280 280 280 280 280 281 281 281 282 282 282 281 281 282 282 282 281 281 282 282 282 283 283 283 283 284 285 285
278 278 278 277 277 278 279 279 279 279 278 278 278 278 278 278 278 278 278 278 278 277 277 277 277 276 276 277 276 276 276 276 277 277 277 277 277 277 277 277 277 277 277 278 278 278 279 278 279 279 279 279 279 279 279 279 279 279 279 280 280 280 280 280 281 281 281 281 281 281 281 282 281 282 281 281 282 282 283 282 283 283 284 284 284
277 277 277 277 278 278 278 278 278 278 278 278 278 278 278 278 278 278 278 277 278 277 277 277 276 276 277 277 277 277 277 277 277 276 277 277 277 277 277 277 277 277 277 277 278 278 278 278 279 278 279 279 279 278 279 279 279 279 280 280 280 280 280 280 280 280 280 281 281 281 281 282 282 282 282 282 282 282 282 282 282 283 283 283 283
278 278 278 278 278 279 279 279 279 278 278 278 277 277 277 277 277 278 277 277 278 277 277 277 277 277 278 278 278 277 277 277 277 277 277 277 277 277 277 277 276 277 278 278 278 278 277 277 277 278 278 278 279 279 279 279 279 280 280 280 280 280 280 279 279 279 279 280 280 280 281 281 283 284 284 284 285 285 283 281 282 283 282 282 282
278 279 279 279 279 279 279 279 279 278 278 278 278 278 278 278 278 278 278 278 277 277 277 277 277 278 278 278 278 277 277 277 277 277 277 277 277 277 277 277 277 277 277 277 277 277 277 277 277 277 277 278 279 279 282 283 284 282 281 281 281 280 279 279 279 278 278 279 279 279 281 283 283 283 283 284 284 284 285 284 282 282 282 282 282
278 279 279 279 279 279 279 278 279 279 278 278 278 278 278 277 278 278 278 279 277 277 277 277 278 278 278 278 277 277 277 277 277 277 277 277 277 277 277 277 277 277 277 277 277 277 277 277 277 277 277 278 279 280 282 284 284 285 283 281 280 280 280 279 279 278 278 278 278 279 279 280 281 281 281 283 283 283 284 284 284 285 285 283 281
278 278 279 278 279 279 279 279 279 279 279 278 278 278 277 278 278 278 279 278 277 277 277 278 278 278 278 278 278 277 277 277 277 277 277 277 277 277 277 277 277 277 277 277 277 277 277 277 278 278 278 278 279 282 283 284 284 284 284 282 280 280 280 279 279 278 278 278 277 278 278 279 279 279 280 280 281 282 282 283 283 283 284 285 285
279 279 280 279 279 280 280 280 279 279 279 279 279 278 278 279 278 279 279 278 278 278 277 278 278 278 278 278 278 277 277 277 277 277 277 277 277 277 277 277 277 277 277 277 277 277 277 278 278 277 278 278 278 281 283 283 283 284 284 283 280 280 279 279 278 278 278 277 277 277 277 278 279 281 281 279 278 278 281 282 282 283 283 284 284
279 279 279 280 280 280 280 280 280 280 280 280 279 279 279 279 279 278 278 278 278 278 277 278 278 278 278 278 278 277 277 278 278 277 277 277 277 277 277 277 277 277 277 277 277 277 277 277 277 277 278 278 278 280 282 283 283 283 283 283 280 279 279 278 278 278 277 277 277 277 276 276 277 277 277 277 277 277 277 278 278 279 279 281 283
279 279 280 280 280 280 280 279 279 279 280 279 278 278 279 278 278 278 278 278 278 278 278 278 278 278 278 278 278 278 277 278 277 277 277 277 277 277 276 277 277 276 276 276 277 277 277 277 277 277 277 277 278 281 282 282 282 282 283 282 279 279 278 277 277 277 277 277 277 277 276 276 276 276 277 278 277 277 277 277 277 278 278 279 280
280 280 280 280 280 280 280 280 281 280 279 279 279 279 278 278 279 278 278 278 278 278 278 278 277 278 278 278 278 278 278 277 277 277 277 277 277 276 276 277 276 276 276 276 276 276 276 277 277 276 276 276 276 280 281 281 281 282 282 279 278 277 277 276 276 276 276 276 277 276 276 276 276 276 278 280 280 278 277 277 277 277 278 278 279
281 281 281 282 281 280 280 280 280 279 279 279 279 279 278 278 278 278 278 278 277 277 278 278 278 278 278 278 278 278 277 277 277 277 276 276 276 276 276 276 276 276 276 276 276 277 276 276 276 276 275 275 275 278 280 280 280 281 280 277 277 276 276 276 275 276 276 276 276 276 276 276 276 275 279 280 281 281 277 276 276 276 277 277 278
281 281 280 280 280 280 280 279 279 279 279 280 279 279 278 278 278 278 277 277 277 277 278 278 278 278 278 278 278 277 277 277 277 276 276 276 276 276 276 276 276 276 276 276 276 275 275 275 275 275 275 274 274 276 279 279 280 280 279 276 276 275 275 275 275 275 276 276 276 278 278 276 276 276 279 280 281 280 277 276 276 276 276 276 277
281 281 280 280 280 280 279 278 277 278 279 279 279 278 278 277 278 278 278 277 278 278 278 278 278 279 278 278 277 277 277 277 276 276 276 276 275 276 276 275 275 275 275 275 275 274 274 274 274 274 275 274 274 275 278 278 279 279 279 276 275 274 274 274 274 274 275 275 275 276 278 277 277 278 281 281 282 280 277 277 277 276 276 276 277
280 280 280 281 280 279 278 278 278 279 280 280 279 278 277 278 278 278 278 278 278 279 279 279 279 278 277 277 277 277 276 276 276 275 275 275 275 274 274 274 274 274 274 274 273 273 273 273 274 273 273 273 273 273 274 278 278 279 279 276 275 274 273 273 273 273 273 274 275 275 276 279 280 280 281 281 281 282 279 278 277 276 276 276 278
280 280 282 280 279 279 279 280 280 280 280 280 278 277 277 278 278 278 278 279 280 280 279 278 277 277 277 277 276 276 276 275 275 275 275 273 274 273 273 273 273 273 273 272 272 272 272 272 273 272 272 272 273 272 273 277 277 278 278 277 274 273 273 273 273 273 273 273 274 274 275 278 279 280 280 281 281 281 281 279 278 277 277 279 280
279 280 281 280 279 279 279 279 279 280 280 280 278 278 278 278 277 277 279 280 280 278 277 277 276 276 276 276 276 275 275 276 274 273 273 272 273 273 273 272 272 272 271 271 271 271 271 271 271 272 271 272 272 273 272 274 276 277 277 278 274 273 274 273 273 273 273 273 273 273 274 276 278 279 279 280 280 280 281 278 278 281 282 282 279
281 281 280 279 279 279 280 280 280 280 280 279 278 277 278 278 277 278 280 280 278 277 277 276 276 276 275 276 276 274 274 274 273 272 272 272 272 271 271 271 271 270 270 270 270 270 270 270 270 270 271 271 271 271 273 272 274 275 276 277 277 275 277 274 273 271 272 272 273 273 274 276 277 278 278 279 279 280 279 278 280 281 281 281 281
280 279 280 280 279 279 279 280 280 280 280 279 278 278 278 278 278 280 279 277 277 276 276 275 274 275 275 274 273 272 273 272 272 272 272 272 271 270 270 269 269 269 268 268 268 268 268 268 267 268 269 269 270 270 271 272 272 274 275 276 277 277 277 274 273 272 272 273 273 273 273 276 277 278 278 279 279 279 278 280 281 281 280 280 278
281 281 281 279 279 279 279 278 279 279 279 279 279 278 277 277 279 279 277 277 275 274 273 273 274 274 273 272 271 272 271 271 272 272 271 271 269 267 267 268 267 267 268 267 267 267 266 266 266 266 267 267 268 268 268 270 272 273 274 275 276 276 276 277 273 272 273 273 275 277 277 277 278 278 279 279 278 278 279 279 279 279 277 276 276
279 279 279 280 279 278 278 278 279 280 280 279 278 277 276 278 279 277 276 275 273 272 273 274 273 272 271 270 270 270 270 270 271 271 269 268 267 266 266 266 266 266 266 266 265 265 265 265 265 265 265 266 267 267 267 268 269 270 271 273 274 275 275 275 275 273 276 276 277 277 277 277 276 276 274 273 273 273 276 277 278 277 275 275 274
280 281 280 279 278 279 278 278 278 279 279 279 276 277 277 278 275 275 273 272 273 273 273 272 272 271 270 269 269 269 269 269 269 268 267 265 265 265 265 264 264 264 263 263 263 263 263 263 263 264 264 265 265 266 267 268 268 268 269 270 270 271 273 274 273 272 273 273 274 274 274 275 276 276 276 275 275 275 274 274 274 274 274 273 273
281 281 280 279 279 279 279 279 279 279 279 278 277 276 276 275 273 272 271 272 272 272 272 272 271 270 269 269 268 268 268 267 266 263 263 264 264 264 263 263 263 263 263 263 263 263 263 263 263 263 264 265 266 267 268 268 269 269 270 271 272 272 272 272 272 272 272 273 272 273 274 273 272 272 272 272 272 272 272 273 273 273 273 274 274
281 281 280 280 280 279 279 278 279 279 279 277 275 274 271 273 273 271 272 272 272 271 271 270 269 268 268 267 267 267 266 264 264 262 263 264 263 262 263 264 265 265 263 263 263 264 265 265 266 266 266 266 267 267 268 272 271 274 272 271 271 271 271 271 272 274 272 272 271 270 270 270 270 270 270 270 270 271 271 271 272 272 273 273 273
281 281 280 279 278 278 278 278 278 279 277 275 273 272 269 270 271 271 272 272 271 270 268 268 267 267 267 266 265 264 262 261 261 261 262 262 266 267 267 265 265 268 270 271 272 268 268 269 268 269 269 268 267 269 273 275 274 274 275 275 274 275 275 273 273 275 272 269 268 268 268 268 268 268 268 268 268 269 269 270 271 272 272 271 272
281 279 278 277 278 278 276 276 277 277 273 273 271 269 269 270 271 272 272 271 270 268 267 267 266 265 265 264 263 261 260 260 260 261 260 261 261 262 267 269 269 268 269 270 272 272 273 273 270 268 270 273 273 273 273 273 273 273 274 274 274 274 274 274 274 270 268 267 266 266 266 267 267 267 267 268 268 268 268 268 269 269 270 271 271
Wind_Speed
9 10 11 12 12 11 10 11 11 12 14 15 15 16 16 14 14 16 13 12 11 10 11 11 11 9 11 13 12 10 11 11 13 12 13 12 13 13 15 13 14 14 15 13 12 11 11 9 6 3 1 1 4 6 5 5 5 5 5 4 7 6 5 5 4 2 3 6 6 8 8 7 9 9 9 8 8 8 6 7 8 8 9 9 8
10 12 13 12 13 13 11 11 13 17 15 15 16 15 13 14 15 13 12 12 13 11 8 10 9 8 8 7 9 10 11 13 13 12 12 12 13 14 14 14 14 14 14 13 13 13 12 10 11 12 10 4 3 3 4 4 5 5 4 4 5 7 6 4 4 4 2 5 7 8 7 6 8 9 8 8 7 6 7 8 9 8 8 7 6
11 12 13 13 14 14 13 13 13 12 13 14 13 14 14 13 12 11 12 12 13 12 10 10 7 9 9 8 8 9 10 10 10 10 10 11 13 14 13 13 13 14 14 14 13 13 12 11 11 10 11 11 11 9 7 6 5 5 4 6 7 3 5 2 4 7 6 2 2 4 7 10 3 3 3 5 6 7 7 7 7 6 9 8 7
12 12 12 12 12 13 14 14 13 13 13 13 14 14 12 13 12 12 11 11 11 12 12 9 9 7 8 9 10 11 9 9 10 11 11 13 15 14 13 13 13 13 14 14 13 14 13 12 11 11 11 12 10 11 13 15 16 13 10 7 6 8 4 5 5 7 6 2 5 4 3 3 13 6 2 6 8 9 6 7 5 7 7 6 5
11 11 11 11 12 12 12 12 11 13 13 13 13 12 9 13 12 11 10 11 11 13 12 9 7 7 5 8 8 8 9 9 11 14 12 11 12 15 14 13 13 13 13 14 12 12 13 12 12 11 11 12 12 12 12 11 11 11 14 14 12 8 10 6 3 5 7 7 6 2 4 2 5 10 6 12 4 4 7 7 6 7 7 7 5
9 10 10 10 10 10 12 12 13 12 12 11 11 11 12 11 12 11 10 11 11 12 12 11 11 12 10 12 14 13 13 14 14 11 12 13 12 9 11 12 13 13 13 13 12 12 13 14 12 13 13 12 12 10 10 11 13 13 13 11 12 15 12 10 10 4 7 8 9 9 7 8 8 5 6 12 0 7 9 7 8 6 6 5 5
8 9 10 10 10 11 11 12 11 11 10 9 9 11 12 11 11 10 10 10 10 11 12 10 12 12 13 12 11 10 10 8 7 8 9 7 6 8 8 10 12 13 13 13 13 13 13 13 12 11 11 11 11 11 12 12 10 12 12 13 12 11 14 13 15 12 4 5 8 10 10 9 8 7 8 8 14 7 7 4 6 6 7 7 8
5 6 7 7 8 8 9 9 9 9 7 8 9 9 11 12 11 11 10 11 11 10 12 11 10 10 11 11 10 10 9 6 5 5 5 4 5 7 5 7 10 10 9 11 12 12 11 13 13 12 12 12 11 11 11 10 9 10 11 11 11 12 13 13 11 13 14 11 5 9 9 11 10 9 10 10 11 13 19 4 8 6 7 8 9
6 6 7 8 8 8 8 8 7 8 9 9 8 8 8 9 11 11 12 11 11 13 11 12 11 11 10 9 10 8 8 7 6 6 6 5 5 4 9 9 10 11 11 11 11 12 11 11 13 13 13 12 10 10 11 12 13 13 15 15 15 12 11 11 10 14 14 12 16 13 10 8 8 9 10 8 8 9 14 15 16 4 5 7 7
4 5 4 6 6 7 6 5 7 7 7 7 7 7 8 9 11 12 12 10 10 12 11 12 11 9 10 12 12 10 8 7 7 8 8 8 10 10 9 9 9 10 11 11 11 10 11 10 10 11 10 10 9 11 12 13 12 12 12 12 11 12 11 12 13 12 10 12 11 10 14 14 12 8 7 9 10 11 13 14 14 14 15 12 6
3 4 4 4 5 4 5 7 6 7 6 6 7 8 8 9 9 12 11 10 10 11 11 11 10 10 10 10 11 11 10 9 9 9 8 10 11 11 10 10 9 10 9 10 11 11 10 7 7 5 5 6 8 10 11 11 10 11 11 11 13 14 13 13 13 12 11 13 14 13 12 11 11 14 17 13 10 8 9 11 13 14 13 15 14
2 3 3 4 5 6 6 7 7 6 7 8 7 7 7 7 8 10 11 11 10 9 11 11 10 10 10 10 11 11 10 9 10 10 10 11 10 9 8 8 9 9 10 10 10 11 10 10 9 9 8 9 7 6 8 8 8 9 10 10 10 11 11 11 10 13 15 11 13 12 11 11 12 12 12 14 16 15 14 14 11 12 12 11 11
2 2 2 3 3 3 4 4 5 5 6 6 6 6 6 7 7 9 10 9 8 8 9 9 10 10 9 10 10 10 10 10 9 10 9 9 8 9 9 9 8 9 9 10 11 12 10 10 11 10 10 9 9 9 9 9 9 9 9 10 10 12 11 11 11 13 12 12 12 10 9 11 12 11 12 14 12 13 17 17 16 12 15 15 11
2 2 3 2 2 2 2 2 2 3 3 4 4 4 4 5 6 7 7 6 7 8 8 9 9 9 9 9 8 7 8 8 8 8 9 8 7 8 8 8 8 9 9 10 9 10 9 9 9 10 10 10 11 10 10 9 9 8 8 9 10 8 9 10 10 11 10 11 9 10 12 12 11 11 12 11 13 15 15 14 16 17 16 16 13
4 3 3 3 3 3 2 2 1 1 1 2 3 3 3 4 5 6 6 7 6 7 7 8 8 8 7 7 7 6 6 6 7 6 7 7 7 8 7 7 7 8 7 7 8 9 9 9 10 9 10 10 10 10 9 10 9 8 8 9 8 9 9 9 8 10 11 13 13 11 10 10 11 11 9 10 12 12 10 12 14 18 18 16 14
4 4 4 4 4 3 3 3 2 1 1 1 1 1 2 2 3 3 3 4 4 5 5 6 6 6 6 7 6 6 5 5 5 5 5 5 6 6 6 6 6 6 6 6 7 8 8 9 9 9 9 10 10 10 10 9 9 9 9 9 11 8 10 12 9 10 10 11 10 10 9 9 9 10 10 11 11 9 9 10 12 11 15 19 17
4 5 5 5 4 4 4 4 3 3 2 1 1 1 0 1 2 3 3 3 4 3 4 4 4 4 5 5 5 5 6 6 6 5 5 5 4 4 5 5 4 5 5 5 6 7 7 8 7 8 8 8 8 9 9 9 9 8 9 10 10 10 10 10 10 11 10 10 10 11 9 9 9 9 9 9 9 9 9 9 8 11 12 13 14
6 5 5 5 5 5 4 4 4 4 4 3 3 3 2 2 0 1 1 2 1 2 2 3 3 3 3 3 3 3 4 4 4 4 4 4 4 4 4 4 4 4 4 4 4 6 6 7 7 7 7 8 8 8 9 9 9 8 8 8 8 9 9 8 9 10 10 9 10 10 10 9 9 9 9 9 9 9 9 10 10 10 9 10 8
5 6 6 6 6 6 6 5 5 5 4 4 3 3 3 3 2 2 0 1 1 0 0 0 1 1 1 1 1 2 2 2 2 2 3 3 3 4 4 4 4 4 4 4 5 5 5 6 6 7 7 7 8 8 8 8 8 8 8 7 8 9 9 9 8 9 8 9 11 11 10 10 10 11 11 10 10 10 10 10 9 8 8 8 10
7 7 7 7 7 7 7 6 6 6 5 5 4 3 3 3 2 3 3 2 1 0 0 0 0 0 1 1 2 1 1 1 2 2 3 2 2 2 3 3 3 3 3 4 3 3 4 4 5 5 6 6 8 7 8 8 8 8 8 7 8 9 9 10 9 9 7 9 10 11 11 10 10 10 10 11 11 11 10 9 10 10 8 7 7
8 8 8 8 8 7 7 6 5 4 4 3 4 5 4 3 3 3 3 2 2 2 2 2 1 0 0 1 2 2 2 2 2 2 1 2 2 1 2 2 2 3 3 3 3 4 4 4 4 5 5 6 6 7 7 7 7 8 7 7 8 8 9 8 8 10 9 9 9 11 11 11 11 10 10 11 11 11 12 11 10 10 9 8 9
8 8 7 7 7 7 6 5 4 4 5 5 6 4 5 4 5 4 3 4 4 3 3 3 2 1 1 2 2 2 2 2 2 2 2 2 2 2 2 2 2 3 2 3 3 3 3 4 4 4 5 5 5 6 6 6 7 8 8 6 7 9 10 10 9 10 10 9 10 10 11 12 11 11 11 11 11 13 12 12 11 11 11 9 8
8 8 7 7 7 7 8 8 8 8 7 6 5 5 6 6 5 4 4 6 5 5 4 3 3 2 3 2 3 3 2 3 3 3 3 3 3 3 3 2 3 3 2 2 3 3 3 3 4 4 4 5 5 6 6 6 7 7 8 8 7 8 9 10 11 11 11 10 11 11 11 10 9 12 12 11 11 11 10 11 12 11 12 11 9
7 5 5 6 5 4 4 6 7 7 7 8 7 6 6 5 6 5 6 7 5 5 5 4 4 3 3 3 3 3 3 3 3 3 4 4 3 3 3 3 3 2 3 3 2 3 3 3 3 4 4 4 5 4 5 5 6 7 7 8 8 8 8 8 9 10 11 11 11 12 12 12 11 11 11 10 10 9 10 10 11 10 11 12 10
6 8 9 6 5 6 8 8 8 8 7 7 7 7 7 7 6 6 7 6 5 4 4 5 4 4 3 3 4 4 4 4 4 4 4 4 4 4 3 3 3 4 3 3 4 2 3 3 4 4 4 4 4 4 5 5 5 6 6 7 8 8 9 9 9 9 9 10 12 12 13 12 12 13 11 11 10 12 10 9 11 10 10 10 10
8 8 6 9 9 7 6 7 8 8 8 8 8 8 8 7 8 6 6 5 6 5 5 5 5 4 4 4 5 4 5 5 4 4 5 4 4 4 4 4 3 4 4 4 4 4 4 4 4 4 4 4 4 4 5 6 6 6 6 6 7 8 8 9 10 10 10 10 11 12 12 12 11 12 13 11 11 12 11 10 11 11 10 10 11
8 7 7 5 5 9 10 9 9 9 8 8 8 9 8 8 8 7 6 6 7 5 5 6 5 4 4 5 5 5 5 4 4 5 4 4 4 4 4 5 4 4 4 5 4 4 5 4 5 4 5 5 5 5 6 6 7 6 7 8 9 9 9 8 9 10 9 10 10 10 11 11 11 11 13 12 12 12 11 12 12 12 11 11 12
7 6 8 10 10 9 9 10 9 10 9 8 8 8 9 9 10 8 7 6 6 5 6 5 4 4 5 6 6 5 5 5 5 4 4 5 5 5 5 5 4 4 5 5 6 5 5 4 5 5 5 4 5 5 6 6 7 8 9 9 9 10 10 10 10 9 10 10 10 11 10 11 11 11 11 12 11 11 11 12 11 10 12 13 13
8 10 9 10 10 10 10 10 10 8 8 9 8 8 7 7 7 7 5 8 7 5 5 5 5 6 7 7 6 5 4 4 4 4 4 6 6 5 5 4 4 5 5 5 5 5 5 6 5 5 5 5 5 6 5 6 7 9 8 10 11 10 11 11 10 10 10 10 11 11 11 10 12 17 19 18 16 16 13 14 14 13 14 14 14
10 11 11 10 11 11 11 10 9 9 9 9 8 8 8 9 9 9 7 9 4 6 6 6 7 8 8 7 6 5 5 4 4 6 6 5 5 6 5 5 5 5 5 5 5 5 5 6 6 6 5 5 5 5 7 14 14 10 10 9 10 11 10 10 11 11 11 11 10 11 11 17 20 19 19 19 20 21 21 17 16 14 15 15 15
11 11 12 11 10 10 9 9 11 10 11 10 9 9 7 7 8 8 8 8 5 6 6 7 9 8 7 7 6 7 5 6 6 5 5 6 7 6 5 6 6 6 6 6 5 6 6 6 6 6 7 6 6 6 12 15 17 19 13 11 12 12 11 11 11 11 12 11 11 10 11 13 15 16 15 18 21 23 22 24 24 24 20 17 17
11 10 9 9 10 10 10 11 12 11 10 9 9 9 6 8 8 8 10 6 4 6 7 8 9 7 6 7 7 6 6 7 6 7 7 6 5 5 6 6 6 7 7 5 6 7 6 7 7 6 7 7 7 9 16 17 19 21 19 14 12 12 12 11 11 12 11 11 11 11 10 9 11 13 14 14 17 20 23 24 26 25 25 26 25
11 11 10 9 10 10 10 10 9 10 10 11 11 7 8 9 8 10 7 5 6 7 7 8 8 6 8 8 7 7 7 7 8 8 6 5 6 6 7 7 8 7 4 5 7 7 7 7 7 8 9 8 8 10 16 19 21 22 23 20 12 13 13 13 13 13 12 11 11 10 11 9 9 16 15 14 14 15 19 24 26 27 27 28 27
10 10 10 10 9 9 9 10 10 10 10 10 7 9 10 8 8 6 5 7 7 7 7 9 8 7 8 8 7 7 8 9 8 7 6 6 6 8 7 6 6 5 6 7 6 8 8 7 8 8 9 9 9 10 17 20 22 23 23 21 13 14 13 13 13 13 13 13 12 13 12 12 12 12 12 14 14 14 13 14 14 14 14 17 21
11 11 11 11 11 10 9 9 9 11 10 7 7 8 8 6 7 7 8 8 7 8 8 8 8 8 8 8 8 8 9 9 8 7 6 7 7 7 6 6 6 6 6 7 7 7 7 7 8 8 9 10 9 14 18 22 22 24 25 22 13 12 11 12 12 12 13 14 14 12 14 15 15 13 12 16 16 14 13 14 13 16 14 13 15
11 11 12 11 10 11 11 12 10 7 8 8 10 9 7 10 7 8 8 8 8 8 9 7 7 9 9 9 8 8 9 8 7 7 6 8 7 6 7 6 5 5 5 5 6 6 7 8 8 8 10 12 11 16 20 21 23 24 26 15 11 11 12 12 13 12 11 11 12 13 12 14 15 15 17 26 25 20 17 15 17 16 15 14 15
11 10 12 12 10 9 11 9 7 8 8 10 11 8 8 8 7 9 9 8 7 9 10 9 9 10 10 9 9 9 8 7 7 6 7 7 6 6 6 3 5 5 6 6 7 7 6 8 10 10 11 12 12 13 18 22 24 26 21 11 11 11 11 12 13 12 13 11 12 12 13 14 15 16 22 29 30 28 19 18 18 17 16 13 14
11 9 7 8 9 8 8 8 9 9 10 10 8 7 7 8 9 9 8 8 9 11 10 9 10 11 10 9 8 7 7 7 6 8 8 6 4 4 4 3 5 6 7 7 7 8 8 8 10 11 11 12 13 14 21 23 24 25 22 14 11 11 11 12 12 12 11 12 14 26 24 17 17 18 26 31 30 26 19 17 16 19 16 16 12
11 11 11 10 11 11 8 4 6 8 12 11 10 8 7 9 9 9 8 9 11 11 10 11 12 11 9 7 6 6 7 7 7 7 5 5 4 5 4 3 4 5 7 7 7 8 10 9 9 10 13 14 14 15 20 23 25 24 20 12 11 10 11 12 12 13 11 12 13 16 27 25 23 25 34 33 33 27 19 16 16 16 16 17 14
12 10 11 12 8 2 4 7 8 13 14 11 7 6 7 9 10 8 8 11 12 12 12 11 8 5 5 6 6 6 7 6 6 4 3 4 3 3 3 4 5 5 7 7 8 8 11 11 10 9 10 11 13 14 14 24 24 25 26 17 11 10 12 12 12 11 13 12 13 15 18 26 30 31 31 32 30 30 23 17 14 14 14 18 12
8 10 8 6 8 8 10 11 11 11 9 8 5 5 8 10 10 7 11 14 13 11 9 5 4 4 5 6 5 5 6 5 4 4 3 2 2 3 3 4 6 6 7 8 9 9 10 12 11 10 10 11 11 14 15 22 25 26 27 23 11 11 11 12 11 13 12 14 15 15 13 20 29 30 30 31 32 32 30 21 16 15 16 19 21
8 10 8 7 7 7 8 9 11 11 9 7 5 6 9 9 7 10 14 13 10 6 4 4 4 5 5 5 5 3 4 4 2 2 2 3 2 3 4 5 5 6 9 10 10 9 9 11 10 9 10 11 12 15 14 18 24 26 26 28 17 13 15 14 18 17 18 17 17 17 16 21 30 30 31 32 34 33 34 23 21 30 35 35 26
11 10 9 8 8 9 10 12 11 10 8 7 6 8 10 9 10 14 13 8 5 4 4 4 4 5 5 5 4 5 3 2 1 1 1 4 3 3 5 4 6 8 9 10 11 10 9 11 11 10 9 11 11 11 18 17 22 25 27 27 29 24 27 20 18 19 19 19 17 18 19 27 30 31 31 33 33 35 31 25 34 34 34 36 31
10 10 12 8 7 8 10 10 10 8 8 7 7 10 9 10 14 14 8 4 4 4 4 5 5 5 5 3 3 2 1 0 0 0 1 3 4 4 4 4 5 6 8 9 9 9 9 10 11 11 11 10 10 9 13 20 20 25 27 30 30 30 30 20 18 18 19 19 19 19 19 30 33 33 35 34 34 34 28 35 37 37 35 31 18
11 13 11 7 9 11 10 9 9 9 9 8 7 9 10 11 14 8 4 4 4 4 5 5 5 5 4 3 2 1 0 0 0 1 3 3 5 4 6 5 4 6 7 9 10 8 8 9 10 12 12 11 10 10 11 15 23 25 29 30 31 31 31 31 22 17 18 19 24 34 35 35 35 36 39 38 33 33 37 36 37 36 31 15 11
10 10 12 11 9 8 8 11 12 11 10 7 7 7 10 13 8 2 4 5 5 5 6 6 5 3 3 2 1 0 0 1 2 1 3 3 4 5 6 7 6 7 7 8 9 8 9 9 10 12 12 13 11 11 10 12 12 16 19 26 32 32 32 31 29 24 31 37 36 35 39 39 36 32 25 20 18 19 29 34 35 33 17 11 11
13 13 11 9 7 9 10 10 11 12 10 8 6 7 10 8 4 3 4 5 6 7 6 4 4 3 2 2 1 1 1 2 2 3 3 3 4 4 6 7 7 7 8 7 8 8 9 10 11 11 11 10 13 11 11 10 9 11 12 14 16 17 23 26 20 17 19 17 23 25 23 29 30 37 38 35 32 31 24 21 16 15 13 13 13
12 11 9 9 9 10 11 10 12 12 9 8 6 7 6 5 4 4 5 5 6 6 6 4 3 3 2 2 2 2 3 3 3 3 4 4 4 4 6 8 8 7 7 9 8 9 11 10 10 10 11 10 12 12 12 11 11 11 12 11 12 12 12 9 12 15 15 18 18 21 25 20 16 16 17 13 12 12 15 12 13 13 13 14 17
11 11 9 11 10 10 10 10 12 11 8 6 6 5 4 5 4 5 6 6 6 4 4 3 3 2 2 2 2 2 3 3 4 3 4 5 6 6 7 8 8 6 6 8 9 11 12 10 9 11 12 10 13 14 11 16 20 27 24 19 13 10 11 12 19 31 25 19 14 15 13 15 12 13 15 13 14 13 11 14 14 16 12 16 13
11 10 9 10 10 11 11 12 11 9 7 6 6 4 3 3 4 5 6 7 6 5 4 3 3 3 2 2 2 2 2 3 4 5 6 7 8 10 10 8 10 12 16 19 17 13 13 11 12 11 10 10 12 14 28 35 33 32 34 35 33 34 33 28 32 40 29 18 17 15 12 13 12 12 12 13 14 10 13 11 12 14 15 12 14
10 8 9 10 11 10 9 10 12 8 6 6 4 3 4 4 5 6 6 6 6 5 4 3 3 3 3 3 2 3 3 3 3 4 5 6 9 8 12 17 17 17 20 22 22 23 25 24 17 14 15 26 29 30 31 31 33 32 34 35 36 35 37 37 36 26 19 15 13 17 17 14 13 13 13 15 12 16 13 14 11 13 11 15 16
Wind_Direction
8 15 18 15 16 19 21 23 24 25 27 23 26 25 25 22 19 22 12 14 19 16 25 28 30 38 44 47 50 42 39 36 39 34 35 33 30 34 35 31 26 26 23 20 19 15 14 3 344 305 240 233 263 269 300 289 267 252 250 215 230 246 258 220 234 202 287 293 264 264 274 245 251 255 253 253 254 261 261 267 261 259 255 256 254
8 16 17 17 18 17 21 24 20 26 20 22 26 22 20 21 26 20 16 16 25 24 19 36 38 38 57 52 63 50 43 37 35 30 30 30 34 35 34 31 30 29 25 24 25 24 18 17 20 11 2 323 263 287 301 300 295 278 273 268 220 228 249 203 192 129 220 241 296 301 285 267 241 248 247 252 253 257 259 255 258 259 265 267 259
13 16 17 18 16 17 22 22 26 26 23 26 22 23 22 23 21 21 19 20 23 22 24 33 25 41 54 59 56 69 58 56 47 37 30 33 37 37 33 32 32 33 28 25 26 24 25 23 20 13 20 16 18 11 352 329 299 276 265 259 271 239 257 235 183 183 237 207 229 319 305 321 304 252 296 280 261 254 251 256 262 261 264 257 256
19 17 15 16 18 17 20 22 21 22 23 23 21 22 22 22 19 18 19 22 25 26 30 29 37 45 62 74 69 65 60 57 60 49 34 31 35 34 35 29 30 33 31 30 28 26 24 24 26 25 19 22 28 31 25 22 11 2 337 293 282 286 250 270 207 199 208 205 290 212 280 319 310 296 297 263 221 243 239 249 242 252 257 263 269
16 14 17 18 19 20 20 19 19 24 21 22 20 20 20 21 17 16 16 19 23 27 29 25 39 47 75 85 99 95 69 49 45 40 33 29 30 33 29 27 29 34 32 30 30 29 28 22 25 32 28 25 28 33 30 20 12 10 8 5 353 310 294 287 266 207 217 213 220 293 299 270 235 283 340 288 176 243 237 228 238 254 255 259 248
22 20 18 19 20 17 21 21 23 22 21 15 16 21 22 21 18 17 21 19 19 19 24 31 40 41 36 36 35 34 35 31 34 30 28 27 31 28 33 31 32 34 33 32 30 29 33 26 20 28 31 26 27 28 28 24 19 14 9 1 5 5 347 320 299 247 229 224 231 231 223 267 289 274 336 302 235 205 258 219 244 228 237 243 230
17 23 18 19 19 21 21 22 20 22 15 8 14 20 25 25 22 22 23 23 16 19 18 27 38 42 47 56 56 52 58 52 50 44 48 38 35 38 37 37 39 39 35 33 30 27 28 30 23 21 30 30 24 24 25 23 18 17 10 14 10 358 8 7 350 322 281 255 244 238 247 252 251 274 274 292 303 292 184 246 250 226 227 226 245
13 15 20 23 23 22 21 17 19 17 8 15 18 18 23 24 25 27 28 27 23 20 25 26 41 42 48 55 57 57 58 62 42 44 51 35 29 38 35 41 39 40 38 36 35 32 28 34 31 26 29 29 26 24 22 16 17 22 24 18 16 16 10 8 350 3 353 339 289 258 247 247 251 247 244 255 276 293 297 251 243 240 231 235 235
12 19 20 19 20 21 17 16 8 13 16 17 17 15 16 20 26 28 31 30 24 22 28 28 36 41 46 49 57 53 54 52 50 45 45 36 36 24 38 40 40 40 41 37 35 35 32 33 33 29 27 26 25 21 22 19 18 16 17 18 16 12 11 357 4 9 356 359 353 344 301 272 257 245 245 241 243 269 273 289 293 247 241 241 241
357 13 13 12 14 13 8 5 15 13 7 10 17 20 20 20 27 30 30 29 25 27 28 31 32 36 44 45 51 50 45 46 44 41 39 30 39 38 38 36 34 35 37 35 33 32 37 39 40 36 33 31 29 26 22 22 19 22 20 20 16 16 11 15 16 3 1 359 360 351 5 349 324 295 265 247 247 236 257 274 280 295 296 281 216
347 358 358 2 352 5 2 19 9 8 7 14 17 17 19 23 23 32 28 27 23 26 27 32 33 34 42 43 46 46 41 41 40 39 36 37 38 35 34 34 32 34 32 34 32 26 32 38 37 32 26 32 34 30 28 21 19 21 17 19 22 21 16 9 11 9 7 4 1 6 5 357 352 345 339 313 278 266 261 258 269 270 265 283 285
318 347 347 346 352 358 3 12 6 358 8 15 15 15 20 20 21 31 26 23 23 22 28 31 33 34 38 39 44 43 40 39 40 40 34 37 36 36 33 35 33 32 30 30 28 24 28 32 32 31 31 29 33 33 33 30 28 26 23 23 24 22 18 17 14 8 8 6 6 3 1 356 359 355 345 341 341 321 295 278 274 282 280 259 276
319 305 325 340 340 336 345 348 355 3 3 360 6 11 14 19 21 33 24 14 18 18 28 28 32 31 26 34 36 37 38 38 39 40 33 36 35 35 32 35 32 31 28 28 23 20 22 24 25 25 25 25 24 26 26 27 28 30 27 26 26 22 17 14 14 10 7 8 0 357 354 360 359 354 349 346 345 348 346 329 313 291 279 283 277
244 264 287 279 291 282 294 294 314 332 342 347 351 9 7 19 19 35 23 14 14 21 21 28 30 29 28 31 30 31 35 36 37 37 33 34 33 35 34 31 32 30 25 27 17 16 21 22 24 24 23 20 20 20 21 20 22 26 24 26 26 23 17 20 17 9 8 6 360 1 2 358 358 356 351 353 356 356 350 342 333 327 310 287 286
228 233 234 245 263 263 262 277 282 288 313 327 334 350 2 20 22 28 25 12 17 18 18 24 22 21 24 25 28 27 33 32 35 32 30 30 29 33 33 30 33 27 26 20 15 20 19 19 21 22 20 20 19 19 17 17 17 16 22 23 20 16 14 15 14 10 6 5 5 4 357 359 355 354 355 355 356 356 348 339 340 334 330 325 305
243 232 250 253 244 256 265 265 266 270 283 294 312 314 1 10 25 31 27 11 13 19 19 20 17 19 20 23 20 27 27 27 30 27 28 28 24 28 27 27 26 24 19 18 14 16 17 16 19 21 18 19 18 16 16 16 12 15 16 18 19 12 7 9 10 6 5 3 0 356 1 358 353 356 355 348 349 349 345 338 334 331 341 330 332
244 238 237 244 256 252 244 246 255 264 268 255 263 260 256 327 24 30 17 15 15 9 18 16 14 25 14 18 17 21 25 28 25 18 17 14 24 24 27 16 16 20 14 13 8 13 14 15 14 16 16 16 16 16 15 14 11 14 14 13 17 9 8 7 2 5 359 357 358 359 357 348 350 352 349 344 341 341 341 337 342 342 336 335 338
231 235 234 234 234 241 248 243 237 234 231 242 239 241 238 236 219 94 26 27 341 357 11 23 17 24 13 11 10 16 18 13 14 14 7 15 9 15 14 20 14 8 12 1 6 8 10 11 12 11 12 12 12 11 12 10 11 15 11 13 12 5 5 4 4 360 356 357 353 353 353 350 346 347 346 340 338 338 338 340 340 346 353 349 332
258 243 240 239 236 236 235 232 234 236 243 239 251 250 253 243 238 213 238 237 259 245 243 268 26 353 351 341 352 358 3 5 355 358 1 18 9 3 9 357 354 356 4 358 6 4 7 8 9 7 7 9 8 9 7 6 6 8 6 4 5 5 3 360 359 358 354 351 349 349 348 346 346 344 342 341 339 339 336 335 335 344 353 352 332
232 234 233 232 232 228 226 223 229 229 231 239 245 267 253 234 228 238 257 264 284 274 251 338 283 290 315 325 336 330 332 345 345 354 3 5 344 351 341 358 345 339 345 347 354 354 357 2 1 3 3 3 5 3 3 3 0 5 360 358 357 359 358 356 351 352 351 349 346 345 343 342 341 339 338 339 337 334 332 330 334 337 343 344 329
222 223 225 227 228 230 231 229 231 243 251 262 256 242 240 254 251 235 221 263 276 265 244 236 228 251 304 311 299 303 301 306 321 323 339 329 325 332 319 315 335 338 340 341 345 343 348 350 351 354 359 357 0 357 358 357 356 354 354 350 348 351 351 349 345 343 345 344 343 340 337 335 337 335 335 333 331 332 332 331 331 331 329 339 337
224 224 224 225 226 228 232 236 238 238 250 245 246 245 257 243 227 232 234 243 243 269 238 235 215 219 241 276 279 272 267 284 293 298 306 298 301 293 288 317 325 301 335 324 333 336 344 344 347 347 350 351 350 351 347 350 348 345 344 347 342 345 343 341 343 339 339 338 336 333 333 332 334 331 330 329 329 328 329 328 329 329 326 328 335
224 226 227 227 225 221 216 214 215 215 221 226 233 227 231 227 227 229 216 245 221 234 242 235 225 218 246 253 275 279 290 298 301 292 287 291 289 296 295 299 294 298 302 305 308 321 330 341 344 345 345 345 344 340 338 339 337 336 333 332 335 335 335 334 336 334 333 331 330 330 328 327 326 325 326 322 322 321 322 322 320 322 318 318 319
243 245 246 240 239 243 246 235 230 228 227 226 225 229 234 234 224 215 218 234 237 233 239 236 230 230 238 261 266 269 286 282 285 273 279 275 279 283 290 294 293 293 310 308 303 304 319 328 331 331 333 330 331 325 325 325 322 325 322 322 324 326 323 322 322 323 325 326 324 323 324 323 321 316 315 314 314 313 315 314 314 314 311 310 312
248 241 239 243 242 233 227 225 222 223 225 227 228 229 227 233 225 214 225 227 228 230 228 236 224 233 250 241 255 257 252 260 258 263 260 265 264 269 271 265 282 299 291 302 310 300 295 307 309 303 303 305 303 306 309 308 308 307 307 308 313 315 316 312 312 311 313 316 316 315 314 317 317 312 309 311 309 308 309 309 308 307 304 305 305
241 245 245 237 233 235 236 231 228 224 222 223 226 226 228 232 233 220 221 235 237 228 225 227 221 209 234 237 239 231 231 236 244 249 250 251 257 261 269 274 240 261 280 281 278 286 281 284 286 291 290 291 292 296 292 297 301 302 300 301 301 305 305 307 305 305 306 306 306 306 306 309 309 307 307 306 305 302 307 304 304 302 300 300 299
246 244 249 264 262 244 235 232 228 225 219 221 221 224 226 228 237 233 225 228 236 227 227 221 212 209 230 236 229 227 225 237 239 246 251 255 255 256 256 263 265 254 266 275 276 272 275 273 277 282 289 293 302 301 301 301 301 300 304 305 306 303 301 299 300 299 297 296 294 294 298 299 298 299 299 300 303 304 302 299 299 299 297 295 297
250 252 245 242 244 247 242 237 233 231 225 224 224 223 222 221 229 231 224 225 232 217 225 229 221 228 234 246 240 238 236 240 245 250 258 262 263 261 254 256 261 267 265 267 270 272 274 271 271 272 272 284 285 290 293 294 294 300 304 305 304 305 303 301 299 294 293 294 292 291 288 290 290 291 292 296 299 297 298 295 295 294 296 297 296
255 253 248 245 245 244 243 240 234 231 229 226 225 228 231 239 240 241 225 225 223 214 236 237 238 235 242 240 243 243 236 243 251 255 263 262 261 262 264 265 262 261 263 261 266 270 281 278 270 266 272 269 270 271 272 278 290 294 296 299 302 301 300 299 296 294 293 291 292 293 290 288 289 292 291 289 288 287 292 292 292 295 296 295 293
252 252 251 247 246 247 246 246 245 234 234 234 229 229 226 226 234 233 231 241 198 223 230 243 239 239 242 243 243 247 248 246 253 256 256 262 266 269 269 270 267 263 266 268 268 268 264 272 279 278 270 265 263 266 265 272 281 287 291 292 292 292 290 290 292 293 289 287 285 289 290 293 294 291 288 286 284 284 281 280 288 291 293 291 290
255 256 254 250 250 250 250 246 243 236 231 230 228 228 226 229 237 236 234 237 194 225 231 236 244 241 241 246 246 247 245 249 247 252 256 257 262 264 270 270 271 273 273 274 278 280 276 274 276 279 282 276 274 272 276 285 291 296 296 292 290 289 287 284 283 284 289 291 290 284 287 289 289 289 287 284 286 285 285 284 282 279 278 281 289
254 251 251 252 249 248 245 243 242 239 235 230 232 229 219 229 230 233 236 228 196 220 232 239 242 244 242 242 242 245 246 250 253 252 252 255 259 265 266 266 271 276 274 281 282 274 278 279 278 276 273 277 280 276 284 289 292 294 295 294 293 292 292 288 287 287 288 290 291 290 286 286 287 286 287 288 285 283 284 284 283 281 277 274 272
262 265 263 258 254 250 248 250 250 248 240 234 228 226 225 228 227 233 232 221 218 223 233 245 248 240 244 244 243 240 243 249 248 248 251 256 258 263 264 265 265 264 279 275 269 279 276 275 275 277 278 278 279 281 286 290 291 293 294 294 289 289 290 291 290 289 289 290 291 289 288 281 284 285 286 286 285 285 281 279 279 279 277 274 274
261 256 256 262 262 257 251 245 246 248 242 243 224 221 233 230 229 239 223 228 221 232 231 243 248 246 245 246 246 241 243 246 248 249 247 251 254 253 257 261 269 279 273 274 274 271 273 272 269 272 278 280 281 280 285 287 290 292 293 293 288 287 287 287 289 289 290 289 288 289 288 286 285 283 284 284 283 280 279 274 272 270 272 269 267
253 257 256 251 252 256 258 257 248 242 244 241 241 225 232 240 229 229 228 226 224 233 241 243 244 250 250 249 246 243 246 249 249 249 250 252 252 257 258 259 258 261 268 269 275 277 275 274 275 278 280 281 280 280 286 289 291 293 293 294 289 286 285 284 282 282 282 284 284 281 281 282 284 282 279 280 282 279 274 270 268 269 266 267 269
235 233 244 245 241 237 238 242 243 239 243 226 234 227 210 232 228 221 230 223 226 231 242 244 243 245 246 246 243 245 246 248 250 250 252 256 255 254 261 262 264 267 260 265 268 260 270 274 274 277 282 283 283 284 288 291 293 294 295 293 288 284 284 281 282 278 275 274 276 276 278 279 280 279 279 282 282 282 278 274 273 270 267 265 263
242 225 232 234 234 231 234 234 241 231 231 233 231 221 214 226 228 228 222 227 223 232 239 236 238 243 243 242 239 239 244 248 247 252 252 253 256 261 260 257 275 269 273 275 274 277 277 282 285 282 281 282 285 287 290 293 294 295 297 290 286 283 279 281 277 279 279 276 274 271 271 276 277 277 279 281 282 281 278 276 274 272 269 265 263
251 253 246 247 244 239 240 221 231 236 233 236 231 216 210 217 228 231 220 224 225 234 234 232 236 239 238 237 237 231 237 241 242 244 248 251 250 255 259 263 265 280 283 278 285 286 281 278 279 282 281 286 289 291 293 293 294 295 296 294 289 284 280 277 277 275 276 276 274 280 280 278 278 277 280 282 282 281 277 272 271 273 273 270 262
245 242 243 243 240 231 234 220 224 239 245 232 228 214 202 218 226 229 221 226 230 234 230 229 233 233 235 233 228 224 228 235 237 241 238 246 248 253 266 277 269 275 278 284 284 283 282 279 274 278 286 287 288 290 292 293 295 296 297 291 287 280 281 281 281 282 275 277 277 276 280 279 279 279 281 282 281 280 276 270 270 271 271 272 270
249 252 242 246 257 259 227 222 222 231 239 240 225 206 212 224 232 227 224 230 233 230 229 230 234 233 224 222 218 220 226 226 230 229 220 231 241 261 268 268 274 270 278 282 280 278 280 280 280 280 282 282 287 288 289 294 296 297 297 295 291 288 285 283 283 282 284 276 271 273 273 277 280 282 283 283 283 281 278 273 267 266 266 269 270
258 252 252 253 253 241 242 237 235 241 245 246 226 202 224 230 233 229 234 236 237 235 236 231 218 215 217 222 220 213 217 211 204 208 204 225 236 262 272 270 280 282 281 281 279 279 280 282 284 283 280 281 281 286 290 294 295 296 297 298 293 286 286 286 286 284 281 285 286 283 282 282 286 286 287 286 286 284 282 278 271 264 263 268 271
254 260 264 250 247 251 254 261 254 250 249 246 227 222 236 240 234 236 240 242 243 242 228 207 206 214 218 220 213 196 183 189 187 184 233 254 245 253 271 282 283 285 284 281 282 279 281 284 285 283 280 281 282 283 290 291 293 296 297 298 298 291 290 292 292 290 288 285 283 284 283 283 284 285 285 285 284 284 282 281 276 276 275 275 275
285 283 257 234 250 249 247 248 254 252 248 246 229 236 242 242 238 243 244 246 239 215 204 203 207 216 214 203 185 171 187 166 192 187 224 278 281 280 280 278 280 283 282 284 284 285 286 288 289 287 285 285 287 290 288 290 294 297 298 298 295 294 293 292 289 287 285 283 282 281 281 282 284 284 283 281 281 281 281 277 277 276 276 276 277
265 256 268 268 251 249 253 251 253 254 249 240 220 235 239 241 244 246 250 228 202 192 181 196 206 207 189 180 168 160 142 132 132 221 272 285 289 286 281 275 274 276 283 285 286 287 288 289 292 294 290 287 286 285 289 293 295 297 297 296 295 294 293 288 286 282 284 282 283 281 280 281 281 281 281 281 279 280 278 278 280 281 282 284 283
269 272 271 260 248 253 256 262 259 255 249 242 221 227 238 241 248 249 232 207 191 176 182 198 199 190 180 158 125 126 122 109 225 273 288 280 282 283 284 278 274 275 277 281 285 289 288 289 290 290 291 290 289 289 288 290 291 293 294 294 294 293 292 291 289 284 280 280 280 281 282 283 283 283 284 285 284 282 282 282 282 281 280 274 272
265 269 265 260 261 256 254 258 265 260 259 246 234 213 233 241 254 224 193 186 173 173 188 197 188 176 167 138 146 141 164 198 257 259 254 262 268 278 277 282 280 275 275 277 283 291 288 287 286 287 289 293 291 289 285 285 284 284 287 288 291 292 292 291 289 286 286 286 286 285 285 285 285 283 282 277 272 271 273 275 277 279 278 274 272
266 261 263 267 259 259 257 255 260 265 262 255 239 229 231 249 247 190 169 162 166 175 179 172 176 157 133 134 159 185 230 223 250 262 259 254 257 265 270 275 271 274 277 275 282 285 286 286 285 285 288 290 291 285 284 284 282 282 283 282 282 282 284 288 287 279 281 281 281 281 279 280 281 282 281 280 279 279 279 277 276 274 271 267 264
257 263 263 262 259 257 260 262 262 263 261 259 251 240 235 227 208 167 160 154 162 166 167 172 165 155 159 157 181 224 247 266 258 247 270 274 259 244 251 262 269 268 276 284 284 283 282 282 284 286 286 287 286 286 289 292 291 289 286 283 282 284 285 284 285 288 286 285 283 283 284 282 278 275 273 267 265 264 266 267 266 266 266 264 259
270 266 256 250 254 258 255 256 258 261 262 262 255 249 212 200 187 159 153 151 150 145 137 148 148 138 173 164 194 204 238 260 276 267 252 244 259 265 264 267 256 244 234 255 271 275 274 271 270 276 284 281 288 290 287 299 297 300 301 300 300 298 297 291 292 296 296 292 286 284 280 281 270 274 274 273 269 263 260 263 264 268 266 268 269
257 258 259 262 256 251 255 256 260 260 258 255 254 235 191 176 145 146 144 143 148 146 150 167 159 167 173 174 219 238 246 253 266 278 288 285 254 253 255 263 280 278 272 270 273 272 276 283 284 277 278 283 289 293 298 300 302 302 302 301 299 299 298 298 297 298 298 295 288 283 275 272 273 269 269 268 269 267 270 264 258 259 264 268 269
261 262 261 252 254 255 255 257 257 260 255 242 238 173 147 146 145 151 149 145 142 151 166 175 171 198 192 205 213 249 244 252 262 273 279 286 303 290 274 272 271 278 283 285 284 282 283 284 283 288 290 291 293 296 298 299 300 301 301 302 302 301 299 299 299 300 294 282 283 286 285 279 277 277 271 275 277 280 274 271 266 263 256 256 256